Showing default

KUIPER-00059, 64519

Orbit data source: Space-Track

KUIPER-00059, 64519 is a payload satellite owned by Kuiper Systems (US) in LEO that was launched on Mon, 23 Jun 2025 UTC via an ATLAS V 551 launch vehicle from the Air Force Eastern Test Range (AFETR). Payload-class satellites include a variety of spacecraft equipped with specific instruments for various scientific and technological missions. These include communications satellites like Starlink; space stations such as the ISS; scientific satellites like the Hubble; Earth observation satellites from companies like Planet Labs, Umbra, and HawkEye 360; GPS; miniature CubeSats for education and research; and military/defense satellites.

Loading next visibility...
Identifier
64519, 2025-134V
Orbit
LEO
Country
Flag of USUS
Related business
Manufacturer
Kuiper Systems
Mission
Operational Commercial Communications
Bus & Motor
KUIPER, Unknown motor
Mass
~490 kg wet, ~490 kg dry
Launch date (UTC)
2025-06-23 (1 year ago)
Launch vehicle
ATLAS V 551
Launch site
Air Force Eastern Test Range (AFETR)
Object type
Payload
Rocket body
Debris
Shape & HBR
Box + 2 Pan, 3.4 m
Radar Cross Section
2.326 m², Large (>1 m²)

Expand to show TLE details & history
Last TLE update: 17 hours ago

TLE from 17 hours ago
0 KUIPER-00059
1 64519U 25134V   26171.15403952  .00007784  00000-0  10480-2 0  9997
2 64519  51.8995 127.4861 0000151  51.6017 308.4959 14.79965228 55427
Epoch: 2026-06-20T03:41Z
TLE epoch observation values (Epoch: 2026-06-20T03:41:49.014Z)
Latitude
-0.00001°
Longitude
163.65912°
Altitude
630.115 km
Speed
7.545 km/s
True Right ascension
08h 29m 56s
True Declination
0° 00' 00"
Sunlit
Object was in daylight at epoch
Visualization orbit readout
Latitude
Unknown
Longitude
Unknown
Altitude
Unknown
Speed
Unknown
Apparent Right ascension
Unknown
Apparent Declination
Unknown
Sunlit
N/A
Visualization observer readout
Local Sidereal Time
07:15:02
Azimuth
Unknown
Elevation
Unknown
Doppler factor
Unknown
Orbital elements
Apogee altitude
629.991 km
Perigee altitude
629.779 km
Semi-major axis
7,008.022 km
Eccentricity
0.00002
Inclination
51.8995°
RAAN
127.4861°
Arg. of periapsis
51.6017°
True anomaly
308.49455°
Mean anomaly
308.4959°
Eccentric anomaly
308.49522°
Mean motion
3.69956 °/min
Orbital period
97.31 mins
BSTAR
0.001048
Loading maneuver chart data...
Computing Atmospheric mass density...
Loading historical data...
Loading historical data...
Loading historical data...
Loading historical data...
Loading historical data...
Loading historical data...
Loading historical data...

Documentation

Showing up to 5 results
|